Time,TemperatureF,DewpointF,PressureIn,WindDirection,WindDirectionDegrees,WindSpeedMPH,WindSpeedGustMPH,Humidity,HourlyPrecipIn,Conditions,Clouds,dailyrainin,SoftwareType,DateUTC
2013-11-05 00:00:00,40.5,32.9,30.49,North,359,0.0,0.0,74,0.00,,---,0.00,VWS V14.01,2013-11-05 05:00:00,
2013-11-05 00:01:00,40.5,32.9,30.49,North,359,0.0,0.0,74,0.00,,---,0.00,VWS V14.01,2013-11-05 05:01:00,
2013-11-05 00:05:00,40.5,32.9,30.49,North,359,0.0,0.0,74,0.00,,---,0.00,VWS V14.01,2013-11-05 05:05:00,
2013-11-05 00:06:00,40.5,32.9,30.49,North,359,0.0,0.0,74,0.00,,---,0.00,VWS V14.01,2013-11-05 05:06:00,
2013-11-05 00:10:00,40.5,32.9,30.49,NNW,337,0.0,0.0,74,0.00,,---,0.00,VWS V14.01,2013-11-05 05:10:00,
2013-11-05 00:11:00,40.5,32.9,30.49,NNW,337,0.0,0.0,74,0.00,,---,0.00,VWS V14.01,2013-11-05 05:11:00,
2013-11-05 00:15:00,40.5,32.9,30.48,NNW,337,0.0,0.0,74,0.00,,---,0.00,VWS V14.01,2013-11-05 05:15:00,
2013-11-05 00:16:00,40.5,32.9,30.48,NNW,337,0.0,0.0,74,0.00,,---,0.00,VWS V14.01,2013-11-05 05:16:00,
2013-11-05 00:20:00,40.5,32.9,30.48,NNW,337,0.0,0.0,74,0.00,,---,0.00,VWS V14.01,2013-11-05 05:20:00,
2013-11-05 00:21:00,40.5,33.2,30.48,NNW,337,0.0,0.0,75,0.00,,---,0.00,VWS V14.01,2013-11-05 05:21:00,
2013-11-05 00:25:00,40.5,33.2,30.48,NNW,337,0.0,0.0,75,0.00,,---,0.00,VWS V14.01,2013-11-05 05:25:00,
2013-11-05 00:26:00,40.5,33.2,30.48,NNW,337,0.0,0.0,75,0.00,,---,0.00,VWS V14.01,2013-11-05 05:26:00,
2013-11-05 00:30:00,40.3,33.0,30.47,NNE,24,0.0,0.0,75,0.00,,---,0.00,VWS V14.01,2013-11-05 05:30:00,
2013-11-05 00:31:00,40.3,33.0,30.47,NNE,24,0.0,0.0,75,0.00,,---,0.00,VWS V14.01,2013-11-05 05:31:00,
2013-11-05 00:35:00,40.3,33.0,30.47,NNE,24,0.0,0.0,75,0.00,,---,0.00,VWS V14.01,2013-11-05 05:35:00,
2013-11-05 00:36:00,40.3,33.0,30.47,NNE,24,0.0,0.0,75,0.00,,---,0.00,VWS V14.01,2013-11-05 05:36:00,
2013-11-05 00:40:00,40.2,32.9,30.47,NE,54,0.0,0.0,75,0.00,,---,0.00,VWS V14.01,2013-11-05 05:40:00,
2013-11-05 00:41:00,40.2,32.9,30.47,NE,54,0.0,0.0,75,0.00,,---,0.00,VWS V14.01,2013-11-05 05:41:00,
2013-11-05 00:45:00,40.2,32.9,30.48,NE,52,0.0,0.0,75,0.00,,---,0.00,VWS V14.01,2013-11-05 05:45:00,
2013-11-05 00:46:00,40.2,32.9,30.48,NE,52,0.0,0.0,75,0.00,,---,0.00,VWS V14.01,2013-11-05 05:46:00,
2013-11-05 00:50:00,40.2,32.9,30.48,NE,52,0.0,0.0,75,0.00,,---,0.00,VWS V14.01,2013-11-05 05:50:00,
2013-11-05 00:51:00,40.2,32.9,30.48,NE,52,0.0,0.0,75,0.00,,---,0.00,VWS V14.01,2013-11-05 05:51:00,
2013-11-05 00:55:00,40.2,32.9,30.48,NE,52,0.0,0.0,75,0.00,,---,0.00,VWS V14.01,2013-11-05 05:55:00,
2013-11-05 00:56:00,40.2,32.9,30.48,NE,52,0.0,0.0,75,0.00,,---,0.00,VWS V14.01,2013-11-05 05:56:00,
2013-11-05 01:00:00,40.2,32.9,30.47,NE,52,0.0,0.0,75,0.00,,---,0.00,VWS V14.01,2013-11-05 06:00:00,
2013-11-05 01:01:00,40.2,32.9,30.47,NE,52,0.0,0.0,75,0.00,,---,0.00,VWS V14.01,2013-11-05 06:01:00,
2013-11-05 01:05:00,40.2,32.9,30.47,NE,52,0.0,0.0,75,0.00,,---,0.00,VWS V14.01,2013-11-05 06:05:00,
2013-11-05 01:06:00,40.2,32.9,30.47,NE,52,0.0,0.0,75,0.00,,---,0.00,VWS V14.01,2013-11-05 06:06:00,
2013-11-05 01:10:00,40.2,32.9,30.47,NE,52,0.0,0.0,75,0.00,,---,0.00,VWS V14.01,2013-11-05 06:10:00,
2013-11-05 01:11:00,40.2,32.9,30.47,NE,37,0.0,0.0,75,0.00,,---,0.00,VWS V14.01,2013-11-05 06:11:00,
2013-11-05 01:15:00,39.8,32.5,30.46,NE,37,0.0,0.0,75,0.00,,---,0.00,VWS V14.01,2013-11-05 06:15:00,
2013-11-05 01:16:00,39.8,32.5,30.46,NE,37,0.0,0.0,75,0.00,,---,0.00,VWS V14.01,2013-11-05 06:16:00,
2013-11-05 01:20:00,39.8,33.5,30.46,NNE,27,0.0,0.0,78,0.00,,---,0.00,VWS V14.01,2013-11-05 06:20:00,
2013-11-05 01:21:00,39.8,33.5,30.46,NNE,27,0.0,0.0,78,0.00,,---,0.00,VWS V14.01,2013-11-05 06:21:00,
2013-11-05 01:25:00,39.8,33.5,30.46,NNE,27,0.0,0.0,78,0.00,,---,0.00,VWS V14.01,2013-11-05 06:25:00,
2013-11-05 01:26:00,39.8,33.5,30.46,NNE,27,0.0,0.0,78,0.00,,---,0.00,VWS V14.01,2013-11-05 06:26:00,
2013-11-05 01:30:00,39.8,33.5,30.47,NNE,27,0.0,0.0,78,0.00,,---,0.00,VWS V14.01,2013-11-05 06:30:00,
2013-11-05 01:31:00,39.8,33.5,30.47,NNE,27,0.0,0.0,78,0.00,,---,0.00,VWS V14.01,2013-11-05 06:31:00,
2013-11-05 01:35:00,39.8,33.5,30.47,NNE,27,0.0,0.0,78,0.00,,---,0.00,VWS V14.01,2013-11-05 06:35:00,
2013-11-05 01:36:00,39.8,33.5,30.47,NNE,27,0.0,0.0,78,0.00,,---,0.00,VWS V14.01,2013-11-05 06:36:00,
2013-11-05 01:40:00,39.8,33.5,30.47,NNE,27,0.0,0.0,78,0.00,,---,0.00,VWS V14.01,2013-11-05 06:40:00,
2013-11-05 01:41:00,39.8,33.5,30.47,NNE,27,0.0,0.0,78,0.00,,---,0.00,VWS V14.01,2013-11-05 06:41:00,
2013-11-05 01:45:00,39.8,33.5,30.48,NNE,27,0.0,0.0,78,0.00,,---,0.00,VWS V14.01,2013-11-05 06:45:00,
2013-11-05 01:46:00,39.8,33.5,30.48,NNE,27,0.0,0.0,78,0.00,,---,0.00,VWS V14.01,2013-11-05 06:46:00,
2013-11-05 01:50:00,39.8,33.5,30.48,NNE,27,0.0,0.0,78,0.00,,---,0.00,VWS V14.01,2013-11-05 06:50:00,
2013-11-05 01:51:00,39.8,33.5,30.48,NNE,27,0.0,0.0,78,0.00,,---,0.00,VWS V14.01,2013-11-05 06:51:00,
2013-11-05 01:55:00,39.8,33.5,30.48,NNE,27,0.0,0.0,78,0.00,,---,0.00,VWS V14.01,2013-11-05 06:55:00,
2013-11-05 01:56:00,39.8,33.5,30.48,NNE,27,0.0,0.0,78,0.00,,---,0.00,VWS V14.01,2013-11-05 06:56:00,
2013-11-05 02:00:00,39.8,33.5,30.47,NNE,27,0.0,0.0,78,0.00,,---,0.00,VWS V14.01,2013-11-05 07:00:00,
2013-11-05 02:01:00,39.8,33.5,30.47,NNE,27,0.0,0.0,78,0.00,,---,0.00,VWS V14.01,2013-11-05 07:01:00,
2013-11-05 02:05:00,39.8,33.5,30.47,NNE,27,0.0,0.0,78,0.00,,---,0.00,VWS V14.01,2013-11-05 07:05:00,
2013-11-05 02:06:00,39.8,33.5,30.47,NNE,27,0.0,0.0,78,0.00,,---,0.00,VWS V14.01,2013-11-05 07:06:00,
2013-11-05 02:10:00,39.8,33.5,30.47,NNE,27,0.0,0.0,78,0.00,,---,0.00,VWS V14.01,2013-11-05 07:10:00,
2013-11-05 02:11:00,39.8,33.5,30.47,NNE,27,0.0,0.0,78,0.00,,---,0.00,VWS V14.01,2013-11-05 07:11:00,
2013-11-05 02:15:00,39.8,33.5,30.47,NNE,27,0.0,0.0,78,0.00,,---,0.00,VWS V14.01,2013-11-05 07:15:00,
2013-11-05 02:16:00,39.8,33.5,30.47,NNE,27,0.0,0.0,78,0.00,,---,0.00,VWS V14.01,2013-11-05 07:16:00,
2013-11-05 02:20:00,39.8,33.5,30.47,NNE,27,0.0,0.0,78,0.00,,---,0.00,VWS V14.01,2013-11-05 07:20:00,
2013-11-05 02:21:00,39.8,33.5,30.47,NNE,27,0.0,0.0,78,0.00,,---,0.00,VWS V14.01,2013-11-05 07:21:00,
2013-11-05 02:25:00,39.8,33.5,30.47,NNE,27,0.0,0.0,78,0.00,,---,0.00,VWS V14.01,2013-11-05 07:25:00,
2013-11-05 02:26:00,39.8,33.5,30.47,NNE,27,0.0,0.0,78,0.00,,---,0.00,VWS V14.01,2013-11-05 07:26:00,
2013-11-05 02:30:00,39.8,33.5,30.47,NNE,27,0.0,0.0,78,0.00,,---,0.00,VWS V14.01,2013-11-05 07:30:00,
2013-11-05 02:31:00,39.8,33.5,30.47,NNE,27,0.0,0.0,78,0.00,,---,0.00,VWS V14.01,2013-11-05 07:31:00,
2013-11-05 02:35:00,39.8,33.5,30.47,NNE,27,0.0,0.0,78,0.00,,---,0.00,VWS V14.01,2013-11-05 07:35:00,
2013-11-05 02:36:00,39.8,33.5,30.47,NNE,27,0.0,0.0,78,0.00,,---,0.00,VWS V14.01,2013-11-05 07:36:00,
2013-11-05 02:40:00,39.8,33.5,30.47,NNE,27,0.0,0.0,78,0.00,,---,0.00,VWS V14.01,2013-11-05 07:40:00,
2013-11-05 02:41:00,39.8,33.5,30.47,NNE,27,0.0,0.0,78,0.00,,---,0.00,VWS V14.01,2013-11-05 07:41:00,
2013-11-05 02:45:00,39.8,33.5,30.47,NNE,27,0.0,0.0,78,0.00,,---,0.00,VWS V14.01,2013-11-05 07:45:00,
2013-11-05 02:46:00,39.8,33.5,30.47,NNE,27,0.0,0.0,78,0.00,,---,0.00,VWS V14.01,2013-11-05 07:46:00,
2013-11-05 02:50:00,39.8,33.5,30.47,NNE,27,0.0,0.0,78,0.00,,---,0.00,VWS V14.01,2013-11-05 07:50:00,
2013-11-05 02:51:00,39.8,33.5,30.47,NNE,27,0.0,0.0,78,0.00,,---,0.00,VWS V14.01,2013-11-05 07:51:00,
2013-11-05 02:55:00,39.8,33.5,30.47,NNE,27,0.0,0.0,78,0.00,,---,0.00,VWS V14.01,2013-11-05 07:55:00,
2013-11-05 02:56:00,39.8,33.5,30.47,NNE,27,0.0,0.0,78,0.00,,---,0.00,VWS V14.01,2013-11-05 07:56:00,
2013-11-05 03:00:00,39.8,33.5,30.46,NNE,27,0.0,0.0,78,0.00,,---,0.00,VWS V14.01,2013-11-05 08:00:00,
2013-11-05 03:01:00,39.8,33.5,30.46,NNE,27,0.0,0.0,78,0.00,,---,0.00,VWS V14.01,2013-11-05 08:01:00,
2013-11-05 03:05:00,39.8,33.5,30.46,NNE,27,0.0,0.0,78,0.00,,---,0.00,VWS V14.01,2013-11-05 08:05:00,
2013-11-05 03:06:00,39.8,33.5,30.46,NNE,27,0.0,0.0,78,0.00,,---,0.00,VWS V14.01,2013-11-05 08:06:00,
2013-11-05 03:10:00,39.8,33.5,30.46,NNE,27,0.0,0.0,78,0.00,,---,0.00,VWS V14.01,2013-11-05 08:10:00,
2013-11-05 03:11:00,39.8,33.5,30.46,NNE,27,0.0,0.0,78,0.00,,---,0.00,VWS V14.01,2013-11-05 08:11:00,
2013-11-05 03:15:00,39.8,33.5,30.47,NNE,27,0.0,0.0,78,0.00,,---,0.00,VWS V14.01,2013-11-05 08:15:00,
2013-11-05 03:16:00,39.8,33.5,30.47,NNE,27,0.0,0.0,78,0.00,,---,0.00,VWS V14.01,2013-11-05 08:16:00,
2013-11-05 03:20:00,39.8,33.5,30.47,NNE,27,0.0,0.0,78,0.00,,---,0.00,VWS V14.01,2013-11-05 08:20:00,
2013-11-05 03:21:00,39.8,33.5,30.47,NNE,27,0.0,0.0,78,0.00,,---,0.00,VWS V14.01,2013-11-05 08:21:00,
2013-11-05 03:25:00,39.8,33.5,30.47,NNE,27,0.0,0.0,78,0.00,,---,0.00,VWS V14.01,2013-11-05 08:25:00,
2013-11-05 03:26:00,39.8,33.5,30.47,NNE,27,0.0,0.0,78,0.00,,---,0.00,VWS V14.01,2013-11-05 08:26:00,
2013-11-05 03:30:00,39.8,33.5,30.46,NNE,27,0.0,0.0,78,0.00,,---,0.00,VWS V14.01,2013-11-05 08:30:00,
2013-11-05 03:31:00,39.8,33.5,30.46,NNE,27,0.0,0.0,78,0.00,,---,0.00,VWS V14.01,2013-11-05 08:31:00,
2013-11-05 03:35:00,39.8,33.5,30.46,NNE,27,0.0,0.0,78,0.00,,---,0.00,VWS V14.01,2013-11-05 08:35:00,
2013-11-05 03:36:00,39.8,33.5,30.46,NNE,27,0.0,0.0,78,0.00,,---,0.00,VWS V14.01,2013-11-05 08:36:00,
2013-11-05 03:40:00,39.8,33.5,30.46,NNE,27,0.0,0.0,78,0.00,,---,0.00,VWS V14.01,2013-11-05 08:40:00,
2013-11-05 03:41:00,39.8,33.5,30.46,NNE,27,0.0,0.0,78,0.00,,---,0.00,VWS V14.01,2013-11-05 08:41:00,
2013-11-05 03:45:00,39.8,33.5,30.46,NNE,27,0.0,0.0,78,0.00,,---,0.00,VWS V14.01,2013-11-05 08:45:00,
2013-11-05 03:46:00,39.8,33.5,30.46,NNE,27,0.0,0.0,78,0.00,,---,0.00,VWS V14.01,2013-11-05 08:46:00,
2013-11-05 03:50:00,39.8,33.5,30.46,NNE,27,0.0,0.0,78,0.00,,---,0.00,VWS V14.01,2013-11-05 08:50:00,
2013-11-05 03:51:00,39.8,33.5,30.46,NNE,27,0.0,0.0,78,0.00,,---,0.00,VWS V14.01,2013-11-05 08:51:00,
2013-11-05 03:55:00,39.8,33.5,30.46,NNE,27,0.0,0.0,78,0.00,,---,0.00,VWS V14.01,2013-11-05 08:55:00,
2013-11-05 03:56:00,39.8,33.5,30.46,NNE,27,0.0,0.0,78,0.00,,---,0.00,VWS V14.01,2013-11-05 08:56:00,
2013-11-05 04:00:00,39.8,33.5,30.45,NNE,27,0.0,0.0,78,0.00,,---,0.00,VWS V14.01,2013-11-05 09:00:00,
2013-11-05 04:01:00,39.8,33.5,30.45,NNE,27,0.0,0.0,78,0.00,,---,0.00,VWS V14.01,2013-11-05 09:01:00,
2013-11-05 04:05:00,39.8,33.5,30.45,NNE,27,0.0,0.0,78,0.00,,---,0.00,VWS V14.01,2013-11-05 09:05:00,
2013-11-05 04:06:00,39.8,33.5,30.45,NNE,27,0.0,0.0,78,0.00,,---,0.00,VWS V14.01,2013-11-05 09:06:00,
2013-11-05 04:10:00,39.8,33.5,30.45,NNE,27,0.0,0.0,78,0.00,,---,0.00,VWS V14.01,2013-11-05 09:10:00,
2013-11-05 04:11:00,39.8,33.5,30.45,NNE,27,0.0,0.0,78,0.00,,---,0.00,VWS V14.01,2013-11-05 09:11:00,
2013-11-05 04:15:00,39.8,33.5,30.46,NNE,27,0.0,0.0,78,0.00,,---,0.00,VWS V14.01,2013-11-05 09:15:00,
2013-11-05 04:16:00,39.8,33.5,30.46,NNE,27,0.0,0.0,78,0.00,,---,0.00,VWS V14.01,2013-11-05 09:16:00,
2013-11-05 04:20:00,39.8,33.5,30.46,NNE,27,0.0,0.0,78,0.00,,---,0.00,VWS V14.01,2013-11-05 09:20:00,
2013-11-05 04:21:00,39.8,33.5,30.46,NNE,27,0.0,0.0,78,0.00,,---,0.00,VWS V14.01,2013-11-05 09:21:00,
2013-11-05 04:25:00,39.8,33.5,30.46,NNE,27,0.0,0.0,78,0.00,,---,0.00,VWS V14.01,2013-11-05 09:25:00,
2013-11-05 04:26:00,39.8,33.5,30.46,NNE,27,0.0,0.0,78,0.00,,---,0.00,VWS V14.01,2013-11-05 09:26:00,
2013-11-05 04:30:00,39.8,33.5,30.46,NNE,27,0.0,0.0,78,0.00,,---,0.00,VWS V14.01,2013-11-05 09:30:00,
2013-11-05 04:31:00,39.8,33.5,30.46,NNE,27,0.0,0.0,78,0.00,,---,0.00,VWS V14.01,2013-11-05 09:31:00,
2013-11-05 04:35:00,39.8,33.5,30.46,NNE,27,0.0,0.0,78,0.00,,---,0.00,VWS V14.01,2013-11-05 09:35:00,
2013-11-05 04:36:00,39.8,33.5,30.46,NNE,27,0.0,0.0,78,0.00,,---,0.00,VWS V14.01,2013-11-05 09:36:00,
2013-11-05 04:40:00,39.8,33.5,30.46,NNE,27,0.0,0.0,78,0.00,,---,0.00,VWS V14.01,2013-11-05 09:40:00,
2013-11-05 04:41:00,39.8,33.5,30.46,NNE,27,0.0,0.0,78,0.00,,---,0.00,VWS V14.01,2013-11-05 09:41:00,
2013-11-05 04:45:00,39.8,33.5,30.46,NNE,27,0.0,0.0,78,0.00,,---,0.00,VWS V14.01,2013-11-05 09:45:00,
2013-11-05 04:46:00,39.8,33.5,30.46,NNE,27,0.0,0.0,78,0.00,,---,0.00,VWS V14.01,2013-11-05 09:46:00,
2013-11-05 04:50:00,39.8,33.5,30.46,NNE,27,0.0,0.0,78,0.00,,---,0.00,VWS V14.01,2013-11-05 09:50:00,
2013-11-05 04:51:00,39.8,33.5,30.46,NNE,27,0.0,0.0,78,0.00,,---,0.00,VWS V14.01,2013-11-05 09:51:00,
2013-11-05 04:55:00,39.8,33.5,30.46,NNE,27,0.0,0.0,78,0.00,,---,0.00,VWS V14.01,2013-11-05 09:55:00,
2013-11-05 04:56:00,39.8,33.5,30.46,NNE,27,0.0,0.0,78,0.00,,---,0.00,VWS V14.01,2013-11-05 09:56:00,
2013-11-05 05:00:00,39.8,33.5,30.46,NNE,27,0.0,0.0,78,0.00,,---,0.00,VWS V14.01,2013-11-05 10:00:00,
2013-11-05 05:01:00,39.8,33.5,30.46,NNE,27,0.0,0.0,78,0.00,,---,0.00,VWS V14.01,2013-11-05 10:01:00,
2013-11-05 05:05:00,39.8,33.5,30.46,NNE,27,0.0,0.0,78,0.00,,---,0.00,VWS V14.01,2013-11-05 10:05:00,
2013-11-05 05:06:00,39.8,33.5,30.46,NNE,27,0.0,0.0,78,0.00,,---,0.00,VWS V14.01,2013-11-05 10:06:00,
2013-11-05 05:10:00,39.8,33.5,30.46,NNE,27,0.0,0.0,78,0.00,,---,0.00,VWS V14.01,2013-11-05 10:10:00,
2013-11-05 05:11:00,39.8,33.5,30.46,NNE,27,0.0,0.0,78,0.00,,---,0.00,VWS V14.01,2013-11-05 10:11:00,
2013-11-05 05:15:00,39.8,33.5,30.47,NNE,27,0.0,0.0,78,0.00,,---,0.00,VWS V14.01,2013-11-05 10:15:00,
2013-11-05 05:16:00,39.8,33.5,30.47,NNE,27,0.0,0.0,78,0.00,,---,0.00,VWS V14.01,2013-11-05 10:16:00,
2013-11-05 05:20:00,39.8,33.5,30.47,NNE,27,0.0,0.0,78,0.00,,---,0.00,VWS V14.01,2013-11-05 10:20:00,
2013-11-05 05:21:00,39.8,33.5,30.47,NNE,27,0.0,0.0,78,0.00,,---,0.00,VWS V14.01,2013-11-05 10:21:00,
2013-11-05 05:25:00,39.8,33.5,30.47,NNE,27,0.0,0.0,78,0.00,,---,0.00,VWS V14.01,2013-11-05 10:25:00,
2013-11-05 05:26:00,39.8,33.5,30.47,NNE,27,0.0,0.0,78,0.00,,---,0.00,VWS V14.01,2013-11-05 10:26:00,
2013-11-05 05:30:00,39.8,33.5,30.47,NNE,27,0.0,0.0,78,0.00,,---,0.00,VWS V14.01,2013-11-05 10:30:00,
2013-11-05 05:31:00,39.8,33.5,30.47,NNE,27,0.0,0.0,78,0.00,,---,0.00,VWS V14.01,2013-11-05 10:31:00,
2013-11-05 05:35:00,39.8,33.5,30.47,NNE,27,0.0,0.0,78,0.00,,---,0.00,VWS V14.01,2013-11-05 10:35:00,
2013-11-05 05:36:00,39.8,33.5,30.47,NNE,27,0.0,0.0,78,0.00,,---,0.00,VWS V14.01,2013-11-05 10:36:00,
2013-11-05 05:40:00,39.8,33.5,30.47,NNE,27,0.0,0.0,78,0.00,,---,0.00,VWS V14.01,2013-11-05 10:40:00,
2013-11-05 05:41:00,39.8,33.5,30.47,NNE,27,0.0,0.0,78,0.00,,---,0.00,VWS V14.01,2013-11-05 10:41:00,
2013-11-05 05:45:00,38.5,32.2,30.48,North,0,0.0,0.0,78,0.00,,---,0.00,VWS V14.01,2013-11-05 10:45:00,
2013-11-05 05:50:00,38.6,32.3,30.48,NW,323,0.0,0.0,78,0.00,,---,0.00,VWS V14.01,2013-11-05 10:50:00,
2013-11-05 05:55:00,38.6,32.3,30.48,North,0,0.0,0.0,78,0.00,,---,0.00,VWS V14.01,2013-11-05 10:55:00,
2013-11-05 06:00:00,38.6,32.3,30.48,North,353,3.0,3.0,78,0.00,,---,0.00,VWS V14.01,2013-11-05 11:00:00,
2013-11-05 06:05:00,39.3,33.0,30.48,NNW,339,0.0,0.0,78,0.00,,---,0.00,VWS V14.01,2013-11-05 11:05:00,
2013-11-05 06:10:00,39.5,33.2,30.48,North,353,0.0,0.0,78,0.00,,---,0.00,VWS V14.01,2013-11-05 11:10:00,
2013-11-05 06:15:00,39.8,34.1,30.49,North,0,0.0,0.0,80,0.00,,---,0.00,VWS V14.01,2013-11-05 11:15:00,
2013-11-05 06:20:00,39.8,34.1,30.49,North,359,1.0,1.0,80,0.00,,---,0.00,VWS V14.01,2013-11-05 11:20:00,
2013-11-05 06:25:00,39.8,33.8,30.49,North,350,0.0,0.0,79,0.00,,---,0.00,VWS V14.01,2013-11-05 11:25:00,
2013-11-05 06:30:00,39.8,33.8,30.49,North,350,0.0,0.0,79,0.00,,---,0.00,VWS V14.01,2013-11-05 11:30:00,
2013-11-05 06:35:00,39.8,33.8,30.49,North,353,0.0,0.0,79,0.00,,---,0.00,VWS V14.01,2013-11-05 11:35:00,
2013-11-05 06:40:00,39.8,33.8,30.49,North,357,0.0,0.0,79,0.00,,---,0.00,VWS V14.01,2013-11-05 11:40:00,
2013-11-05 06:45:00,39.8,33.8,30.48,North,357,0.0,0.0,79,0.00,,---,0.00,VWS V14.01,2013-11-05 11:45:00,
2013-11-05 06:50:00,39.8,33.8,30.48,North,359,0.0,0.0,79,0.00,,---,0.00,VWS V14.01,2013-11-05 11:50:00,
2013-11-05 06:55:00,39.8,33.8,30.48,North,359,0.0,0.0,79,0.00,,---,0.00,VWS V14.01,2013-11-05 11:55:00,
2013-11-05 07:00:00,39.8,33.8,30.47,North,359,0.0,0.0,79,0.00,,---,0.00,VWS V14.01,2013-11-05 12:00:00,
2013-11-05 07:05:00,39.8,33.8,30.47,North,359,0.0,0.0,79,0.00,,---,0.00,VWS V14.01,2013-11-05 12:05:00,
2013-11-05 07:10:00,39.8,33.8,30.47,North,359,0.0,0.0,79,0.00,,---,0.00,VWS V14.01,2013-11-05 12:10:00,
2013-11-05 07:15:00,39.8,33.8,30.48,North,359,0.0,0.0,79,0.00,,---,0.00,VWS V14.01,2013-11-05 12:15:00,
2013-11-05 07:20:00,39.8,33.8,30.48,North,359,0.0,0.0,79,0.00,,---,0.00,VWS V14.01,2013-11-05 12:20:00,
2013-11-05 07:25:00,39.8,33.8,30.48,North,359,0.0,0.0,79,0.00,,---,0.00,VWS V14.01,2013-11-05 12:25:00,
2013-11-05 07:30:00,39.8,33.8,30.48,North,359,0.0,0.0,79,0.00,,---,0.00,VWS V14.01,2013-11-05 12:30:00,
2013-11-05 07:35:00,39.8,33.8,30.48,North,359,0.0,0.0,79,0.00,,---,0.00,VWS V14.01,2013-11-05 12:35:00,
2013-11-05 07:40:00,39.8,33.8,30.48,North,359,0.0,0.0,79,0.00,,---,0.00,VWS V14.01,2013-11-05 12:40:00,
2013-11-05 07:45:00,39.8,33.8,30.48,North,359,0.0,0.0,79,0.00,,---,0.00,VWS V14.01,2013-11-05 12:45:00,
2013-11-05 07:50:00,41.1,35.1,30.48,North,0,0.0,0.0,79,0.00,,---,0.00,VWS V14.01,2013-11-05 12:50:00,
2013-11-05 07:55:00,41.1,34.8,30.48,North,6,0.0,0.0,78,0.00,,---,0.00,VWS V14.01,2013-11-05 12:55:00,
2013-11-05 08:00:00,41.2,34.9,30.49,North,0,0.0,0.0,78,0.00,,---,0.00,VWS V14.01,2013-11-05 13:00:00,
2013-11-05 08:05:00,41.3,35.0,30.49,ENE,64,0.0,0.0,78,0.00,,---,0.00,VWS V14.01,2013-11-05 13:05:00,
2013-11-05 08:10:00,41.5,35.2,30.49,NNW,337,0.0,0.0,78,0.00,,---,0.00,VWS V14.01,2013-11-05 13:10:00,
2013-11-05 08:15:00,41.8,35.5,30.49,North,0,0.0,0.0,78,0.00,,---,0.00,VWS V14.01,2013-11-05 13:15:00,
2013-11-05 08:20:00,41.9,35.5,30.49,NW,326,0.0,0.0,78,0.00,,---,0.00,VWS V14.01,2013-11-05 13:20:00,
2013-11-05 08:25:00,42.2,35.8,30.49,North,0,0.0,0.0,78,0.00,,---,0.00,VWS V14.01,2013-11-05 13:25:00,
2013-11-05 08:30:00,42.3,35.9,30.49,ESE,104,0.0,0.0,78,0.00,,---,0.00,VWS V14.01,2013-11-05 13:30:00,
2013-11-05 08:35:00,42.6,36.2,30.49,East,83,0.0,0.0,78,0.00,,---,0.00,VWS V14.01,2013-11-05 13:35:00,
2013-11-05 08:40:00,42.6,36.2,30.49,NNE,27,0.0,0.0,78,0.00,,---,0.00,VWS V14.01,2013-11-05 13:40:00,
2013-11-05 08:45:00,43.1,36.7,30.49,NNW,335,2.0,2.0,78,0.00,,---,0.00,VWS V14.01,2013-11-05 13:45:00,
2013-11-05 08:50:00,43.1,36.7,30.49,North,350,0.0,2.0,78,0.00,,---,0.00,VWS V14.01,2013-11-05 13:50:00,
2013-11-05 08:55:00,43.1,36.7,30.49,North,0,3.0,3.0,78,0.00,,---,0.00,VWS V14.01,2013-11-05 13:55:00,
2013-11-05 09:00:00,43.8,37.4,30.50,North,349,0.0,3.0,78,0.00,,---,0.00,VWS V14.01,2013-11-05 14:00:00,
2013-11-05 09:05:00,43.9,37.2,30.50,NE,47,0.0,3.0,77,0.00,,---,0.00,VWS V14.01,2013-11-05 14:05:00,
2013-11-05 09:10:00,44.2,37.5,30.50,NNE,20,0.0,0.0,77,0.00,,---,0.00,VWS V14.01,2013-11-05 14:10:00,
2013-11-05 09:15:00,44.2,37.5,30.49,NNE,20,0.0,0.0,77,0.00,,---,0.00,VWS V14.01,2013-11-05 14:15:00,
2013-11-05 09:20:00,44.8,38.0,30.49,NNE,21,0.0,0.0,77,0.00,,---,0.00,VWS V14.01,2013-11-05 14:20:00,
2013-11-05 09:25:00,45.1,37.7,30.49,NNE,20,0.0,0.0,75,0.00,,---,0.00,VWS V14.01,2013-11-05 14:25:00,
2013-11-05 09:30:00,45.5,38.0,30.49,NNE,20,0.0,0.0,75,0.00,,---,0.00,VWS V14.01,2013-11-05 14:30:00,
2013-11-05 09:35:00,45.5,38.0,30.49,North,0,0.0,0.0,75,0.00,,---,0.00,VWS V14.01,2013-11-05 14:35:00,
2013-11-05 09:40:00,45.5,38.0,30.49,NNW,330,0.0,0.0,75,0.00,,---,0.00,VWS V14.01,2013-11-05 14:40:00,
2013-11-05 09:45:00,45.7,38.2,30.49,NNE,31,0.0,1.0,75,0.00,,---,0.00,VWS V14.01,2013-11-05 14:45:00,
2013-11-05 09:50:00,45.8,38.3,30.49,North,1,1.0,3.0,75,0.00,,---,0.00,VWS V14.01,2013-11-05 14:50:00,
2013-11-05 09:55:00,46.1,38.6,30.49,North,10,1.0,2.0,75,0.00,,---,0.00,VWS V14.01,2013-11-05 14:55:00,
2013-11-05 10:00:00,46.2,38.7,30.49,North,0,0.0,2.0,75,0.00,,---,0.00,VWS V14.01,2013-11-05 15:00:00,
2013-11-05 10:05:00,46.4,38.9,30.49,North,10,2.0,2.0,75,0.00,,---,0.00,VWS V14.01,2013-11-05 15:05:00,
2013-11-05 10:10:00,46.4,38.9,30.49,North,8,0.0,2.0,75,0.00,,---,0.00,VWS V14.01,2013-11-05 15:10:00,
2013-11-05 10:15:00,46.5,38.7,30.49,NNE,16,0.0,0.0,74,0.00,,---,0.00,VWS V14.01,2013-11-05 15:15:00,
2013-11-05 10:20:00,46.5,38.7,30.49,North,352,0.0,2.0,74,0.00,,---,0.00,VWS V14.01,2013-11-05 15:20:00,
2013-11-05 10:25:00,47.1,39.2,30.49,NNW,332,0.0,1.0,74,0.00,,---,0.00,VWS V14.01,2013-11-05 15:25:00,
2013-11-05 10:30:00,47.0,38.8,30.49,North,359,1.0,3.0,73,0.00,,---,0.00,VWS V14.01,2013-11-05 15:30:00,
2013-11-05 10:35:00,47.0,38.8,30.49,NNW,333,1.0,1.0,73,0.00,,---,0.00,VWS V14.01,2013-11-05 15:35:00,
2013-11-05 10:40:00,47.0,38.8,30.49,NNW,340,0.0,1.0,73,0.00,,---,0.00,VWS V14.01,2013-11-05 15:40:00,
2013-11-05 10:45:00,48.2,39.6,30.49,ENE,62,0.0,1.0,72,0.00,,---,0.00,VWS V14.01,2013-11-05 15:45:00,
2013-11-05 10:50:00,48.2,39.6,30.49,ENE,62,0.0,0.0,72,0.00,,---,0.00,VWS V14.01,2013-11-05 15:50:00,
2013-11-05 10:55:00,48.2,39.6,30.49,NNE,27,0.0,0.0,72,0.00,,---,0.00,VWS V14.01,2013-11-05 15:55:00,
2013-11-05 11:00:00,48.2,39.6,30.49,NNW,346,1.0,1.0,72,0.00,,---,0.00,VWS V14.01,2013-11-05 16:00:00,
2013-11-05 11:05:00,48.2,39.6,30.49,North,7,0.0,3.0,72,0.00,,---,0.00,VWS V14.01,2013-11-05 16:05:00,
2013-11-05 11:10:00,49.5,40.9,30.49,North,359,0.0,0.0,72,0.00,,---,0.00,VWS V14.01,2013-11-05 16:10:00,
2013-11-05 11:15:00,49.8,40.8,30.49,North,357,0.0,0.0,71,0.00,,---,0.00,VWS V14.01,2013-11-05 16:15:00,
2013-11-05 11:20:00,49.8,40.8,30.49,North,357,0.0,0.0,71,0.00,,---,0.00,VWS V14.01,2013-11-05 16:20:00,
2013-11-05 11:25:00,50.2,41.2,30.49,NNE,14,0.0,6.0,71,0.00,,---,0.00,VWS V14.01,2013-11-05 16:25:00,
2013-11-05 11:30:00,50.1,41.1,30.49,North,350,1.0,2.0,71,0.00,,---,0.00,VWS V14.01,2013-11-05 16:30:00,
2013-11-05 11:35:00,50.1,41.1,30.49,North,357,0.0,1.0,71,0.00,,---,0.00,VWS V14.01,2013-11-05 16:35:00,
2013-11-05 11:40:00,50.4,41.4,30.49,East,93,0.0,4.0,71,0.00,,---,0.00,VWS V14.01,2013-11-05 16:40:00,
2013-11-05 11:45:00,50.5,41.1,30.47,WNW,294,2.0,5.0,70,0.00,,---,0.00,VWS V14.01,2013-11-05 16:45:00,
2013-11-05 11:50:00,50.7,41.3,30.47,NW,316,0.0,3.0,70,0.00,,---,0.00,VWS V14.01,2013-11-05 16:50:00,
2013-11-05 11:55:00,51.4,42.0,30.47,East,97,0.0,3.0,70,0.00,,---,0.00,VWS V14.01,2013-11-05 16:55:00,
2013-11-05 12:00:00,51.9,42.4,30.47,ESE,109,0.0,2.0,70,0.00,,---,0.00,VWS V14.01,2013-11-05 17:00:00,
2013-11-05 12:05:00,52.0,41.8,30.47,NNE,13,0.0,3.0,68,0.00,,---,0.00,VWS V14.01,2013-11-05 17:05:00,
2013-11-05 12:10:00,52.2,42.0,30.47,NNW,337,0.0,0.0,68,0.00,,---,0.00,VWS V14.01,2013-11-05 17:10:00,
2013-11-05 12:15:00,52.5,42.3,30.45,North,359,0.0,3.0,68,0.00,,---,0.00,VWS V14.01,2013-11-05 17:15:00,
2013-11-05 12:20:00,52.6,42.0,30.45,North,0,1.0,2.0,67,0.00,,---,0.00,VWS V14.01,2013-11-05 17:20:00,
2013-11-05 12:25:00,52.8,42.9,30.45,NE,35,0.0,0.0,69,0.00,,---,0.00,VWS V14.01,2013-11-05 17:25:00,
2013-11-05 12:30:00,53.2,43.3,30.44,ESE,107,0.0,2.0,69,0.00,,---,0.00,VWS V14.01,2013-11-05 17:30:00,
2013-11-05 12:35:00,53.6,42.9,30.44,West,268,0.0,0.0,67,0.00,,---,0.00,VWS V14.01,2013-11-05 17:35:00,
2013-11-05 12:40:00,53.5,43.2,30.44,WNW,299,0.0,0.0,68,0.00,,---,0.00,VWS V14.01,2013-11-05 17:40:00,
2013-11-05 12:45:00,53.6,43.3,30.43,NE,44,0.0,0.0,68,0.00,,---,0.00,VWS V14.01,2013-11-05 17:45:00,
2013-11-05 12:50:00,53.8,43.1,30.43,NE,44,0.0,0.0,67,0.00,,---,0.00,VWS V14.01,2013-11-05 17:50:00,
2013-11-05 12:55:00,54.2,43.5,30.43,WSW,243,0.0,3.0,67,0.00,,---,0.00,VWS V14.01,2013-11-05 17:55:00,
2013-11-05 13:00:00,54.2,43.5,30.43,NE,45,0.0,0.0,67,0.00,,---,0.00,VWS V14.01,2013-11-05 18:00:00,
2013-11-05 13:05:00,54.2,43.5,30.43,NE,45,0.0,0.0,67,0.00,,---,0.00,VWS V14.01,2013-11-05 18:05:00,
2013-11-05 13:10:00,54.2,43.5,30.43,North,6,0.0,0.0,67,0.00,,---,0.00,VWS V14.01,2013-11-05 18:10:00,
2013-11-05 13:15:00,54.2,43.5,30.43,NNE,16,0.0,0.0,67,0.00,,---,0.00,VWS V14.01,2013-11-05 18:15:00,
2013-11-05 13:20:00,54.2,43.5,30.43,NNE,16,0.0,0.0,67,0.00,,---,0.00,VWS V14.01,2013-11-05 18:20:00,
2013-11-05 13:25:00,54.2,43.5,30.43,NNE,16,0.0,0.0,67,0.00,,---,0.00,VWS V14.01,2013-11-05 18:25:00,
2013-11-05 13:30:00,54.2,43.5,30.42,NNE,16,0.0,0.0,67,0.00,,---,0.00,VWS V14.01,2013-11-05 18:30:00,
2013-11-05 13:35:00,54.2,43.5,30.42,NNE,16,0.0,0.0,67,0.00,,---,0.00,VWS V14.01,2013-11-05 18:35:00,
2013-11-05 13:40:00,54.2,43.5,30.42,NNE,16,0.0,0.0,67,0.00,,---,0.00,VWS V14.01,2013-11-05 18:40:00,
2013-11-05 13:45:00,54.2,43.5,30.42,NNE,16,0.0,0.0,67,0.00,,---,0.00,VWS V14.01,2013-11-05 18:45:00,
2013-11-05 13:50:00,54.2,43.5,30.42,NNE,16,0.0,0.0,67,0.00,,---,0.00,VWS V14.01,2013-11-05 18:50:00,
2013-11-05 13:55:00,54.2,43.5,30.42,NNE,16,0.0,0.0,67,0.00,,---,0.00,VWS V14.01,2013-11-05 18:55:00,
2013-11-05 14:00:00,54.2,43.5,30.41,NNE,16,0.0,0.0,67,0.00,,---,0.00,VWS V14.01,2013-11-05 19:00:00,
2013-11-05 14:05:00,54.2,43.5,30.41,NNE,16,0.0,0.0,67,0.00,,---,0.00,VWS V14.01,2013-11-05 19:05:00,
2013-11-05 14:10:00,54.2,43.5,30.41,NNE,16,0.0,0.0,67,0.00,,---,0.00,VWS V14.01,2013-11-05 19:10:00,
2013-11-05 14:15:00,54.2,43.5,30.41,NNE,16,0.0,0.0,67,0.00,,---,0.00,VWS V14.01,2013-11-05 19:15:00,
2013-11-05 14:20:00,54.2,43.5,30.41,NNE,16,0.0,0.0,67,0.00,,---,0.00,VWS V14.01,2013-11-05 19:20:00,
2013-11-05 14:25:00,54.2,43.5,30.41,NNE,16,0.0,0.0,67,0.00,,---,0.00,VWS V14.01,2013-11-05 19:25:00,
2013-11-05 14:30:00,56.3,45.5,30.40,North,0,0.0,2.0,67,0.00,,---,0.00,VWS V14.01,2013-11-05 19:30:00,
2013-11-05 14:35:00,56.2,45.4,30.40,NNE,25,0.0,1.0,67,0.00,,---,0.00,VWS V14.01,2013-11-05 19:35:00,
2013-11-05 14:40:00,56.2,45.4,30.40,NNW,336,0.0,0.0,67,0.00,,---,0.00,VWS V14.01,2013-11-05 19:40:00,
2013-11-05 14:45:00,56.0,45.2,30.41,North,349,0.0,2.0,67,0.00,,---,0.00,VWS V14.01,2013-11-05 19:45:00,
2013-11-05 14:50:00,56.0,45.2,30.41,NE,42,0.0,0.0,67,0.00,,---,0.00,VWS V14.01,2013-11-05 19:50:00,
2013-11-05 14:55:00,55.9,45.1,30.41,NE,54,0.0,0.0,67,0.00,,---,0.00,VWS V14.01,2013-11-05 19:55:00,
2013-11-05 15:00:00,55.9,45.1,30.40,NE,54,0.0,0.0,67,0.00,,---,0.00,VWS V14.01,2013-11-05 20:00:00,
2013-11-05 15:05:00,55.9,45.1,30.40,ENE,58,0.0,0.0,67,0.00,,---,0.00,VWS V14.01,2013-11-05 20:05:00,
2013-11-05 15:10:00,55.9,45.1,30.40,NE,51,0.0,0.0,67,0.00,,---,0.00,VWS V14.01,2013-11-05 20:10:00,
2013-11-05 15:15:00,55.9,45.1,30.40,NE,51,0.0,0.0,67,0.00,,---,0.00,VWS V14.01,2013-11-05 20:15:00,
2013-11-05 15:20:00,55.9,45.1,30.40,NE,51,0.0,0.0,67,0.00,,---,0.00,VWS V14.01,2013-11-05 20:20:00,
2013-11-05 15:25:00,55.9,45.1,30.40,NE,51,0.0,0.0,67,0.00,,---,0.00,VWS V14.01,2013-11-05 20:25:00,
2013-11-05 15:30:00,55.9,45.1,30.41,NE,51,0.0,0.0,67,0.00,,---,0.00,VWS V14.01,2013-11-05 20:30:00,
2013-11-05 15:35:00,55.9,45.1,30.41,NE,51,0.0,0.0,67,0.00,,---,0.00,VWS V14.01,2013-11-05 20:35:00,
2013-11-05 15:40:00,55.9,45.1,30.41,NE,51,0.0,0.0,67,0.00,,---,0.00,VWS V14.01,2013-11-05 20:40:00,
2013-11-05 15:45:00,55.9,45.1,30.40,NE,51,0.0,0.0,67,0.00,,---,0.00,VWS V14.01,2013-11-05 20:45:00,
2013-11-05 15:50:00,55.9,45.1,30.40,NE,51,0.0,0.0,67,0.00,,---,0.00,VWS V14.01,2013-11-05 20:50:00,
2013-11-05 15:55:00,55.9,45.1,30.40,NE,51,0.0,0.0,67,0.00,,---,0.00,VWS V14.01,2013-11-05 20:55:00,
2013-11-05 16:00:00,55.9,45.1,30.40,NE,51,0.0,0.0,67,0.00,,---,0.00,VWS V14.01,2013-11-05 21:00:00,
2013-11-05 16:05:00,55.9,45.1,30.40,NE,51,0.0,0.0,67,0.00,,---,0.00,VWS V14.01,2013-11-05 21:05:00,
2013-11-05 16:10:00,55.9,45.1,30.40,NE,51,0.0,0.0,67,0.00,,---,0.00,VWS V14.01,2013-11-05 21:10:00,
2013-11-05 16:15:00,55.9,45.1,30.40,NE,51,0.0,0.0,67,0.00,,---,0.00,VWS V14.01,2013-11-05 21:15:00,
2013-11-05 16:20:00,55.9,45.1,30.40,NE,51,0.0,0.0,67,0.00,,---,0.00,VWS V14.01,2013-11-05 21:20:00,
2013-11-05 16:25:00,55.9,45.1,30.40,NE,51,0.0,0.0,67,0.00,,---,0.00,VWS V14.01,2013-11-05 21:25:00,
2013-11-05 16:30:00,55.9,45.1,30.40,NE,51,0.0,0.0,67,0.00,,---,0.00,VWS V14.01,2013-11-05 21:30:00,
2013-11-05 16:35:00,55.9,45.1,30.40,NE,51,0.0,0.0,67,0.00,,---,0.00,VWS V14.01,2013-11-05 21:35:00,
2013-11-05 16:40:00,55.9,45.1,30.40,NE,51,0.0,0.0,67,0.00,,---,0.00,VWS V14.01,2013-11-05 21:40:00,
2013-11-05 16:45:00,55.9,45.1,30.40,NE,51,0.0,0.0,67,0.00,,---,0.00,VWS V14.01,2013-11-05 21:45:00,
2013-11-05 16:50:00,55.9,45.1,30.40,NE,51,0.0,0.0,67,0.00,,---,0.00,VWS V14.01,2013-11-05 21:50:00,
2013-11-05 16:55:00,55.9,45.1,30.40,NE,51,0.0,0.0,67,0.00,,---,0.00,VWS V14.01,2013-11-05 21:55:00,
2013-11-05 17:00:00,55.9,45.1,30.39,NE,51,0.0,0.0,67,0.00,,---,0.00,VWS V14.01,2013-11-05 22:00:00,
2013-11-05 17:05:00,55.9,45.1,30.39,NE,51,0.0,0.0,67,0.00,,---,0.00,VWS V14.01,2013-11-05 22:05:00,
2013-11-05 17:10:00,55.9,45.1,30.39,NE,51,0.0,0.0,67,0.00,,---,0.00,VWS V14.01,2013-11-05 22:10:00,
2013-11-05 17:15:00,55.9,45.1,30.41,NE,51,0.0,0.0,67,0.00,,---,0.00,VWS V14.01,2013-11-05 22:15:00,
2013-11-05 17:20:00,55.9,45.1,30.41,NE,51,0.0,0.0,67,0.00,,---,0.00,VWS V14.01,2013-11-05 22:20:00,
2013-11-05 17:25:00,55.9,45.1,30.41,NE,51,0.0,0.0,67,0.00,,---,0.00,VWS V14.01,2013-11-05 22:25:00,
2013-11-05 17:30:00,55.9,45.1,30.41,NE,51,0.0,0.0,67,0.00,,---,0.00,VWS V14.01,2013-11-05 22:30:00,
2013-11-05 17:35:00,55.9,45.1,30.41,NE,51,0.0,0.0,67,0.00,,---,0.00,VWS V14.01,2013-11-05 22:35:00,
2013-11-05 17:40:00,55.9,45.1,30.41,NE,51,0.0,0.0,67,0.00,,---,0.00,VWS V14.01,2013-11-05 22:40:00,
2013-11-05 17:45:00,55.9,45.1,30.41,NE,51,0.0,0.0,67,0.00,,---,0.00,VWS V14.01,2013-11-05 22:45:00,
2013-11-05 17:50:00,55.9,45.1,30.41,NE,51,0.0,0.0,67,0.00,,---,0.00,VWS V14.01,2013-11-05 22:50:00,
2013-11-05 17:55:00,55.9,45.1,30.41,NE,51,0.0,0.0,67,0.00,,---,0.00,VWS V14.01,2013-11-05 22:55:00,
2013-11-05 18:00:00,55.9,45.1,30.42,NE,51,0.0,0.0,67,0.00,,---,0.00,VWS V14.01,2013-11-05 23:00:00,
2013-11-05 18:05:00,55.9,45.1,30.42,NE,51,0.0,0.0,67,0.00,,---,0.00,VWS V14.01,2013-11-05 23:05:00,
2013-11-05 18:10:00,55.9,45.1,30.42,NE,51,0.0,0.0,67,0.00,,---,0.00,VWS V14.01,2013-11-05 23:10:00,
2013-11-05 18:15:00,55.9,45.1,30.40,NE,51,0.0,0.0,67,0.00,,---,0.00,VWS V14.01,2013-11-05 23:15:00,
2013-11-05 18:20:00,55.9,45.1,30.40,NE,51,0.0,0.0,67,0.00,,---,0.00,VWS V14.01,2013-11-05 23:20:00,
2013-11-05 18:25:00,55.9,45.1,30.40,NE,51,0.0,0.0,67,0.00,,---,0.00,VWS V14.01,2013-11-05 23:25:00,
2013-11-05 18:30:00,55.9,45.1,30.41,NE,51,0.0,0.0,67,0.00,,---,0.00,VWS V14.01,2013-11-05 23:30:00,
2013-11-05 18:35:00,55.9,45.1,30.41,NE,51,0.0,0.0,67,0.00,,---,0.00,VWS V14.01,2013-11-05 23:35:00,
2013-11-05 18:40:00,55.9,45.1,30.41,NE,51,0.0,0.0,67,0.00,,---,0.00,VWS V14.01,2013-11-05 23:40:00,
2013-11-05 18:45:00,55.9,45.1,30.40,NE,51,0.0,0.0,67,0.00,,---,0.00,VWS V14.01,2013-11-05 23:45:00,
2013-11-05 18:50:00,55.9,45.1,30.40,NE,51,0.0,0.0,67,0.00,,---,0.00,VWS V14.01,2013-11-05 23:50:00,
2013-11-05 18:55:00,55.9,45.1,30.40,NE,51,0.0,0.0,67,0.00,,---,0.00,VWS V14.01,2013-11-05 23:55:00,
2013-11-05 19:00:00,55.9,45.1,30.40,NE,51,0.0,0.0,67,0.00,,---,0.00,VWS V14.01,2013-11-06 00:00:00,
2013-11-05 19:05:00,55.9,45.1,30.40,NE,51,0.0,0.0,67,0.00,,---,0.00,VWS V14.01,2013-11-06 00:05:00,
2013-11-05 19:10:00,55.9,45.1,30.40,NE,51,0.0,0.0,67,0.00,,---,0.00,VWS V14.01,2013-11-06 00:10:00,
2013-11-05 19:15:00,55.9,45.1,30.42,NE,51,0.0,0.0,67,0.00,,---,0.00,VWS V14.01,2013-11-06 00:15:00,
2013-11-05 19:20:00,55.9,45.1,30.42,NE,51,0.0,0.0,67,0.00,,---,0.00,VWS V14.01,2013-11-06 00:20:00,
2013-11-05 19:25:00,55.9,45.1,30.42,NE,51,0.0,0.0,67,0.00,,---,0.00,VWS V14.01,2013-11-06 00:25:00,
2013-11-05 19:30:00,55.9,45.1,30.42,NE,51,0.0,0.0,67,0.00,,---,0.00,VWS V14.01,2013-11-06 00:30:00,
2013-11-05 19:34:00,55.9,45.1,30.42,NE,51,0.0,0.0,67,0.00,,---,0.00,VWS V14.01,2013-11-06 00:34:00,
2013-11-05 19:35:00,55.9,45.1,30.42,NE,51,0.0,0.0,67,0.00,,---,0.00,VWS V14.01,2013-11-06 00:35:00,
2013-11-05 19:39:00,55.9,45.1,30.42,NE,51,0.0,0.0,67,0.00,,---,0.00,VWS V14.01,2013-11-06 00:39:00,
2013-11-05 19:40:00,55.9,45.1,30.42,NE,51,0.0,0.0,67,0.00,,---,0.00,VWS V14.01,2013-11-06 00:40:00,
2013-11-05 19:44:00,55.9,45.1,30.42,NE,51,0.0,0.0,67,0.00,,---,0.00,VWS V14.01,2013-11-06 00:44:00,
2013-11-05 19:45:00,55.9,45.1,30.42,NE,51,0.0,0.0,67,0.00,,---,0.00,VWS V14.01,2013-11-06 00:45:00,
2013-11-05 19:49:00,55.9,45.1,30.42,NE,51,0.0,0.0,67,0.00,,---,0.00,VWS V14.01,2013-11-06 00:49:00,
2013-11-05 19:50:00,55.9,45.1,30.42,NE,51,0.0,0.0,67,0.00,,---,0.00,VWS V14.01,2013-11-06 00:50:00,
2013-11-05 19:54:00,55.9,45.1,30.42,NE,51,0.0,0.0,67,0.00,,---,0.00,VWS V14.01,2013-11-06 00:54:00,
2013-11-05 19:55:00,55.9,45.1,30.42,NE,51,0.0,0.0,67,0.00,,---,0.00,VWS V14.01,2013-11-06 00:55:00,
2013-11-05 19:59:00,55.9,45.1,30.42,NE,51,0.0,0.0,67,0.00,,---,0.00,VWS V14.01,2013-11-06 00:59:00,
2013-11-05 20:00:00,55.9,45.1,30.42,NE,51,0.0,0.0,67,0.00,,---,0.00,VWS V14.01,2013-11-06 01:00:00,
2013-11-05 20:04:00,55.9,45.1,30.42,NE,51,0.0,0.0,67,0.00,,---,0.00,VWS V14.01,2013-11-06 01:04:00,
2013-11-05 20:05:00,55.9,45.1,30.42,NE,51,0.0,0.0,67,0.00,,---,0.00,VWS V14.01,2013-11-06 01:05:00,
2013-11-05 20:09:00,55.9,45.1,30.42,NE,51,0.0,0.0,67,0.00,,---,0.00,VWS V14.01,2013-11-06 01:09:00,
2013-11-05 20:10:00,55.9,45.1,30.42,NE,51,0.0,0.0,67,0.00,,---,0.00,VWS V14.01,2013-11-06 01:10:00,
2013-11-05 20:14:00,55.9,45.1,30.42,NE,51,0.0,0.0,67,0.00,,---,0.00,VWS V14.01,2013-11-06 01:14:00,
2013-11-05 20:15:00,55.9,45.1,30.42,NE,51,0.0,0.0,67,0.00,,---,0.00,VWS V14.01,2013-11-06 01:15:00,
2013-11-05 20:19:00,55.9,45.1,30.42,NE,51,0.0,0.0,67,0.00,,---,0.00,VWS V14.01,2013-11-06 01:19:00,
2013-11-05 20:20:00,55.9,45.1,30.42,NE,51,0.0,0.0,67,0.00,,---,0.00,VWS V14.01,2013-11-06 01:20:00,
2013-11-05 20:24:00,55.9,45.1,30.42,NE,51,0.0,0.0,67,0.00,,---,0.00,VWS V14.01,2013-11-06 01:24:00,
2013-11-05 20:25:00,55.9,45.1,30.42,NE,51,0.0,0.0,67,0.00,,---,0.00,VWS V14.01,2013-11-06 01:25:00,
2013-11-05 20:29:00,55.9,45.1,30.41,NE,51,0.0,0.0,67,0.00,,---,0.00,VWS V14.01,2013-11-06 01:29:00,
2013-11-05 20:30:00,55.9,45.1,30.41,NE,51,0.0,0.0,67,0.00,,---,0.00,VWS V14.01,2013-11-06 01:30:00,
2013-11-05 20:34:00,55.9,45.1,30.41,NE,51,0.0,0.0,67,0.00,,---,0.00,VWS V14.01,2013-11-06 01:34:00,
2013-11-05 20:35:00,55.9,45.1,30.41,NE,51,0.0,0.0,67,0.00,,---,0.00,VWS V14.01,2013-11-06 01:35:00,
2013-11-05 20:39:00,55.9,45.1,30.41,NE,51,0.0,0.0,67,0.00,,---,0.00,VWS V14.01,2013-11-06 01:39:00,
2013-11-05 20:40:00,55.9,45.1,30.41,NE,51,0.0,0.0,67,0.00,,---,0.00,VWS V14.01,2013-11-06 01:40:00,
2013-11-05 20:44:00,55.9,45.1,30.41,NE,51,0.0,0.0,67,0.00,,---,0.00,VWS V14.01,2013-11-06 01:44:00,
2013-11-05 20:45:00,55.9,45.1,30.41,NE,51,0.0,0.0,67,0.00,,---,0.00,VWS V14.01,2013-11-06 01:45:00,
2013-11-05 20:49:00,55.9,45.1,30.41,NE,51,0.0,0.0,67,0.00,,---,0.00,VWS V14.01,2013-11-06 01:49:00,
2013-11-05 20:50:00,55.9,45.1,30.41,NE,51,0.0,0.0,67,0.00,,---,0.00,VWS V14.01,2013-11-06 01:50:00,
2013-11-05 20:54:00,55.9,45.1,30.41,NE,51,0.0,0.0,67,0.00,,---,0.00,VWS V14.01,2013-11-06 01:54:00,
2013-11-05 20:55:00,55.9,45.1,30.41,NE,51,0.0,0.0,67,0.00,,---,0.00,VWS V14.01,2013-11-06 01:55:00,
2013-11-05 20:59:00,55.9,45.1,30.41,NE,51,0.0,0.0,67,0.00,,---,0.00,VWS V14.01,2013-11-06 01:59:00,
2013-11-05 21:00:00,55.9,45.1,30.41,NE,51,0.0,0.0,67,0.00,,---,0.00,VWS V14.01,2013-11-06 02:00:00,
2013-11-05 21:04:00,55.9,45.1,30.41,NE,51,0.0,0.0,67,0.00,,---,0.00,VWS V14.01,2013-11-06 02:04:00,
2013-11-05 21:05:00,55.9,45.1,30.41,NE,51,0.0,0.0,67,0.00,,---,0.00,VWS V14.01,2013-11-06 02:05:00,
2013-11-05 21:09:00,55.9,45.1,30.41,NE,51,0.0,0.0,67,0.00,,---,0.00,VWS V14.01,2013-11-06 02:09:00,
2013-11-05 21:10:00,55.9,45.1,30.41,NE,51,0.0,0.0,67,0.00,,---,0.00,VWS V14.01,2013-11-06 02:10:00,
2013-11-05 21:14:00,55.9,45.1,30.41,NE,51,0.0,0.0,67,0.00,,---,0.00,VWS V14.01,2013-11-06 02:14:00,
2013-11-05 21:15:00,55.9,45.1,30.41,NE,51,0.0,0.0,67,0.00,,---,0.00,VWS V14.01,2013-11-06 02:15:00,
2013-11-05 21:19:00,55.9,45.1,30.41,NE,51,0.0,0.0,67,0.00,,---,0.00,VWS V14.01,2013-11-06 02:19:00,
2013-11-05 21:20:00,55.9,45.1,30.41,NE,51,0.0,0.0,67,0.00,,---,0.00,VWS V14.01,2013-11-06 02:20:00,
2013-11-05 21:24:00,55.9,45.1,30.41,NE,51,0.0,0.0,67,0.00,,---,0.00,VWS V14.01,2013-11-06 02:24:00,
2013-11-05 21:25:00,55.9,45.1,30.41,NE,51,0.0,0.0,67,0.00,,---,0.00,VWS V14.01,2013-11-06 02:25:00,
2013-11-05 21:29:00,55.9,45.1,30.41,NE,51,0.0,0.0,67,0.00,,---,0.00,VWS V14.01,2013-11-06 02:29:00,
2013-11-05 21:30:00,55.9,45.1,30.41,NE,51,0.0,0.0,67,0.00,,---,0.00,VWS V14.01,2013-11-06 02:30:00,
2013-11-05 21:34:00,55.9,45.1,30.41,NE,51,0.0,0.0,67,0.00,,---,0.00,VWS V14.01,2013-11-06 02:34:00,
2013-11-05 21:35:00,55.9,45.1,30.41,NE,51,0.0,0.0,67,0.00,,---,0.00,VWS V14.01,2013-11-06 02:35:00,
2013-11-05 21:39:00,55.9,45.1,30.41,NE,51,0.0,0.0,67,0.00,,---,0.00,VWS V14.01,2013-11-06 02:39:00,
2013-11-05 21:40:00,55.9,45.1,30.41,NE,51,0.0,0.0,67,0.00,,---,0.00,VWS V14.01,2013-11-06 02:40:00,
2013-11-05 21:44:00,55.9,45.1,30.40,NE,51,0.0,0.0,67,0.00,,---,0.00,VWS V14.01,2013-11-06 02:44:00,
2013-11-05 21:45:00,55.9,45.1,30.40,NE,51,0.0,0.0,67,0.00,,---,0.00,VWS V14.01,2013-11-06 02:45:00,
2013-11-05 21:49:00,55.9,45.1,30.40,NE,51,0.0,0.0,67,0.00,,---,0.00,VWS V14.01,2013-11-06 02:49:00,
2013-11-05 21:50:00,55.9,45.1,30.40,NE,51,0.0,0.0,67,0.00,,---,0.00,VWS V14.01,2013-11-06 02:50:00,
2013-11-05 21:54:00,55.9,45.1,30.40,NE,51,0.0,0.0,67,0.00,,---,0.00,VWS V14.01,2013-11-06 02:54:00,
2013-11-05 21:55:00,55.9,45.1,30.40,NE,51,0.0,0.0,67,0.00,,---,0.00,VWS V14.01,2013-11-06 02:55:00,
2013-11-05 21:59:00,55.9,45.1,30.40,NE,51,0.0,0.0,67,0.00,,---,0.00,VWS V14.01,2013-11-06 02:59:00,
2013-11-05 22:00:00,55.9,45.1,30.41,NE,51,0.0,0.0,67,0.00,,---,0.00,VWS V14.01,2013-11-06 03:00:00,
2013-11-05 22:04:00,55.9,45.1,30.41,NE,51,0.0,0.0,67,0.00,,---,0.00,VWS V14.01,2013-11-06 03:04:00,
2013-11-05 22:05:00,55.9,45.1,30.41,NE,51,0.0,0.0,67,0.00,,---,0.00,VWS V14.01,2013-11-06 03:05:00,
2013-11-05 22:09:00,55.9,45.1,30.41,NE,51,0.0,0.0,67,0.00,,---,0.00,VWS V14.01,2013-11-06 03:09:00,
2013-11-05 22:10:00,55.9,45.1,30.41,NE,51,0.0,0.0,67,0.00,,---,0.00,VWS V14.01,2013-11-06 03:10:00,
2013-11-05 22:14:00,55.9,45.1,30.40,NE,51,0.0,0.0,67,0.00,,---,0.00,VWS V14.01,2013-11-06 03:14:00,
2013-11-05 22:15:00,55.9,45.1,30.40,NE,51,0.0,0.0,67,0.00,,---,0.00,VWS V14.01,2013-11-06 03:15:00,
2013-11-05 22:19:00,55.9,45.1,30.40,NE,51,0.0,0.0,67,0.00,,---,0.00,VWS V14.01,2013-11-06 03:19:00,
2013-11-05 22:20:00,55.9,45.1,30.40,NE,51,0.0,0.0,67,0.00,,---,0.00,VWS V14.01,2013-11-06 03:20:00,
2013-11-05 22:24:00,55.9,45.1,30.40,NE,51,0.0,0.0,67,0.00,,---,0.00,VWS V14.01,2013-11-06 03:24:00,
2013-11-05 22:25:00,55.9,45.1,30.40,NE,51,0.0,0.0,67,0.00,,---,0.00,VWS V14.01,2013-11-06 03:25:00,
2013-11-05 22:29:00,55.9,45.1,30.40,NE,51,0.0,0.0,67,0.00,,---,0.00,VWS V14.01,2013-11-06 03:29:00,
2013-11-05 22:30:00,55.9,45.1,30.40,NE,51,0.0,0.0,67,0.00,,---,0.00,VWS V14.01,2013-11-06 03:30:00,
2013-11-05 22:34:00,55.9,45.1,30.40,NE,51,0.0,0.0,67,0.00,,---,0.00,VWS V14.01,2013-11-06 03:34:00,
2013-11-05 22:35:00,55.9,45.1,30.40,NE,51,0.0,0.0,67,0.00,,---,0.00,VWS V14.01,2013-11-06 03:35:00,
2013-11-05 22:39:00,55.9,45.1,30.40,NE,51,0.0,0.0,67,0.00,,---,0.00,VWS V14.01,2013-11-06 03:39:00,
2013-11-05 22:40:00,55.9,45.1,30.40,NE,51,0.0,0.0,67,0.00,,---,0.00,VWS V14.01,2013-11-06 03:40:00,
2013-11-05 22:44:00,55.9,45.1,30.40,NE,51,0.0,0.0,67,0.00,,---,0.00,VWS V14.01,2013-11-06 03:44:00,
2013-11-05 22:45:00,55.9,45.1,30.40,NE,51,0.0,0.0,67,0.00,,---,0.00,VWS V14.01,2013-11-06 03:45:00,
2013-11-05 22:49:00,55.9,45.1,30.40,NE,51,0.0,0.0,67,0.00,,---,0.00,VWS V14.01,2013-11-06 03:49:00,
2013-11-05 22:50:00,55.9,45.1,30.40,NE,51,0.0,0.0,67,0.00,,---,0.00,VWS V14.01,2013-11-06 03:50:00,
2013-11-05 22:54:00,55.9,45.1,30.40,NE,51,0.0,0.0,67,0.00,,---,0.00,VWS V14.01,2013-11-06 03:54:00,
2013-11-05 22:55:00,55.9,45.1,30.40,NE,51,0.0,0.0,67,0.00,,---,0.00,VWS V14.01,2013-11-06 03:55:00,
2013-11-05 22:59:00,55.9,45.1,30.40,NE,51,0.0,0.0,67,0.00,,---,0.00,VWS V14.01,2013-11-06 03:59:00,
2013-11-05 23:00:00,55.9,45.1,30.40,NE,51,0.0,0.0,67,0.00,,---,0.00,VWS V14.01,2013-11-06 04:00:00,
2013-11-05 23:04:00,55.9,45.1,30.40,NE,51,0.0,0.0,67,0.00,,---,0.00,VWS V14.01,2013-11-06 04:04:00,
2013-11-05 23:05:00,55.9,45.1,30.40,NE,51,0.0,0.0,67,0.00,,---,0.00,VWS V14.01,2013-11-06 04:05:00,
2013-11-05 23:09:00,55.9,45.1,30.40,NE,51,0.0,0.0,67,0.00,,---,0.00,VWS V14.01,2013-11-06 04:09:00,
2013-11-05 23:10:00,55.9,45.1,30.40,NE,51,0.0,0.0,67,0.00,,---,0.00,VWS V14.01,2013-11-06 04:10:00,
2013-11-05 23:14:00,55.9,45.1,30.40,NE,51,0.0,0.0,67,0.00,,---,0.00,VWS V14.01,2013-11-06 04:14:00,
2013-11-05 23:15:00,55.9,45.1,30.39,NE,51,0.0,0.0,67,0.00,,---,0.00,VWS V14.01,2013-11-06 04:15:00,
2013-11-05 23:19:00,55.9,45.1,30.39,NE,51,0.0,0.0,67,0.00,,---,0.00,VWS V14.01,2013-11-06 04:19:00,
2013-11-05 23:20:00,55.9,45.1,30.39,NE,51,0.0,0.0,67,0.00,,---,0.00,VWS V14.01,2013-11-06 04:20:00,
2013-11-05 23:24:00,55.9,45.1,30.39,NE,51,0.0,0.0,67,0.00,,---,0.00,VWS V14.01,2013-11-06 04:24:00,
2013-11-05 23:25:00,55.9,45.1,30.39,NE,51,0.0,0.0,67,0.00,,---,0.00,VWS V14.01,2013-11-06 04:25:00,
2013-11-05 23:29:00,55.9,45.1,30.39,NE,51,0.0,0.0,67,0.00,,---,0.00,VWS V14.01,2013-11-06 04:29:00,
2013-11-05 23:30:00,55.9,45.1,30.38,NE,51,0.0,0.0,67,0.00,,---,0.00,VWS V14.01,2013-11-06 04:30:00,
2013-11-05 23:34:00,55.9,45.1,30.38,NE,51,0.0,0.0,67,0.00,,---,0.00,VWS V14.01,2013-11-06 04:34:00,
2013-11-05 23:35:00,55.9,45.1,30.38,NE,51,0.0,0.0,67,0.00,,---,0.00,VWS V14.01,2013-11-06 04:35:00,
2013-11-05 23:39:00,55.9,45.1,30.38,NE,51,0.0,0.0,67,0.00,,---,0.00,VWS V14.01,2013-11-06 04:39:00,
2013-11-05 23:40:00,55.9,45.1,30.38,NE,51,0.0,0.0,67,0.00,,---,0.00,VWS V14.01,2013-11-06 04:40:00,
2013-11-05 23:44:00,55.9,45.1,30.38,NE,51,0.0,0.0,67,0.00,,---,0.00,VWS V14.01,2013-11-06 04:44:00,
2013-11-05 23:45:00,55.9,45.1,30.38,NE,51,0.0,0.0,67,0.00,,---,0.00,VWS V14.01,2013-11-06 04:45:00,
2013-11-05 23:49:00,55.9,45.1,30.38,NE,51,0.0,0.0,67,0.00,,---,0.00,VWS V14.01,2013-11-06 04:49:00,
2013-11-05 23:50:00,55.9,45.1,30.38,NE,51,0.0,0.0,67,0.00,,---,0.00,VWS V14.01,2013-11-06 04:50:00,
2013-11-05 23:54:00,55.9,45.1,30.38,NE,51,0.0,0.0,67,0.00,,---,0.00,VWS V14.01,2013-11-06 04:54:00,
2013-11-05 23:55:00,55.9,45.1,30.38,NE,51,0.0,0.0,67,0.00,,---,0.00,VWS V14.01,2013-11-06 04:55:00,
2013-11-05 23:59:00,55.9,45.1,30.38,NE,51,0.0,0.0,67,0.00,,---,0.00,VWS V14.01,2013-11-06 04:59:00,